SYRACUSE 3A

Last updated on Sat Sep 12 2026 00:02:59 GMT+0000 (Coordinated Universal Time)

1 28885U 05041B 26254.51939881 .00000114 00000+0 00000+0 0 9998 2 28885 4.8548 74.7263 0002457 106.5771 42.9291 1.00275934 76614
UTC large
Height (km)
Speed (km/s)
/
Latitude / Longitude
Inclination (degrees)
Orbital Period (minutes)
Azimuth
Elevation
Range (km)
Doppler Factor

Next 0 passes for location: London (51.5072 / 0.1276)

No passes found over London.
SYRACUSE 3A